Temp
-4 -3 -4 -4 -4 -4 -5 -4 -4 -4 -3 -3 -3 -4 -4 -5 -5 -5 -5 -5 -5 -6 -6 -6 -6 -6 -6 -7 -6 -6 -6 -6 -6 -7 -7 -7 -8 -8 -8 -8 -8 -9 -9 -8 -8 -9 -9 -9 -9
-4 -3 -3 -3 -3 -4 -4 -4 -5 -4 -4 -3 -4 -4 -4 -4 -5 -5 -5 -5 -5 -6 -6 -6 -7 -7 -6 -7 -6 -7 -7 -6 -6 -6 -7 -7 -8 -8 -8 -8 -8 -9 -8 -8 -8 -8 -9 -9 -9
-4 -4 -3 -3 -3 -4 -5 -4 -4 -4 -4 -4 -4 -4 -4 -4 -5 -5 -5 -5 -6 -5 -5 -6 -6 -7 -7 -7 -7 -7 -7 -7 -6 -6 -7 -7 -7 -8 -8 -8 -8 -8 -8 -8 -8 -8 -9 -9 -9
-4 -4 -4 -2 -4 -4 -4 -4 -3 -4 -4 -4 -5 -5 -5 -4 -5 -5 -5 -5 -6 -6 -6 -6 -6 -7 -7 -7 -7 -7 -7 -7 -6 -6 -6 -7 -7 -7 -8 -8 -8 -8 -8 -8 -8 -8 -9 -9 -9
-4 -4 -4 -5 -4 -4 -4 -4 -4 -4 -4 -4 -5 -5 -5 -5 -5 -5 -5 -5 -5 -5 -6 -6 -6 -6 -7 -7 -7 -7 -7 -7 -6 -6 -6 -7 -7 -7 -7 -8 -7 -7 -8 -8 -8 -8 -9 -8 -9
-4 -5 -6 -4 -4 -4 -4 -4 -4 -4 -5 -5 -5 -5 -5 -5 -5 -5 -5 -5 -5 -6 -5 -5 -6 -6 -6 -6 -6 -7 -7 -7 -6 -6 -6 -6 -7 -7 -7 -7 -7 -7 -8 -8 -8 -8 -8 -8 -8
-6 -5 -6 -4 -5 -4 -4 -4 -5 -5 -5 -5 -4 -5 -5 -5 -5 -5 -5 -6 -6 -6 -5 -6 -6 -6 -6 -6 -6 -6 -7 -7 -7 -6 -6 -6 -7 -7 -7 -7 -7 -7 -7 -7 -8 -8 -8 -8 -8
-5 -7 -5 -6 -5 -5 -5 -4 -5 -5 -5 -5 -5 -5 -5 -5 -5 -5 -5 -5 -6 -6 -6 -6 -6 -6 -6 -6 -7 -7 -7 -7 -7 -7 -7 -7 -7 -6 -6 -7 -7 -7 -7 -7 -8 -8 -8 -8 -8
-6 -8 -9 -8 -5 -5 -5 -4 -5 -5 -5 -6 -6 -6 -6 -5 -5 -5 -5 -6 -6 -6 -6 -6 -6 -6 -6 -6 -6 -6 -7 -7 -7 -7 -7 -6 -6 -7 -7 -7 -7 -7 -7 -7 -7 -8 -8 -8 -8
-7 -8 -8 -9 -6 -5 -5 -5 -5 -5 -5 -5 -6 -5 -5 -5 -5 -5 -5 -5 -6 -6 -6 -6 -6 -6 -6 -6 -7 -6 -6 -6 -6 -6 -6 -6 -6 -6 -6 -5 -7 -7 -7 -7 -7 -8 -8 -8 -8
-7 -9 -8 -8 -9 -6 -5 -5 -5 -6 -5 -5 -5 -5 -5 -5 -5 -5 -5 -5 -6 -6 -6 -6 -6 -6 -6 -6 -6 -6 -6 -6 -6 -6 -6 -6 -6 -6 -6 -7 -7 -7 -7 -7 -8 -8 -8 -8 -9
-8 -6 -9 -9 -5 -8 -6 -5 -5 -5 -5 -5 -5 -5 -5 -5 -5 -5 -5 -5 -6 -6 -6 -6 -6 -7 -6 -6 -6 -6 -7 -6 -6 -6 -6 -7 -7 -7 -6 -6 -7 -8 -7 -7 -8 -8 -8 -8 -8
-9 -7 -6 -6 -5 -9 -6 -6 -5 -5 -5 -5 -5 -5 -5 -5 -5 -5 -5 -5 -5 -6 -6 -6 -6 -7 -6 -6 -7 -6 -6 -7 -6 -6 -6 -7 -7 -7 -7 -7 -7 -7 -7 -7 -7 -7 -8 -8 -8
-7 -6 -6 -7 -7 -7 -7 -6 -6 -6 -5 -5 -5 -5 -5 -5 -5 -5 -5 -5 -6 -6 -6 -6 -7 -6 -7 -7 -7 -7 -7 -7 -7 -7 -7 -6 -7 -7 -6 -7 -7 -7 -7 -7 -7 -7 -8 -7 -8
-7 -8 -8 -8 -9 -8 -7 -7 -7 -6 -6 -6 -5 -5 -6 -6 -6 -5 -5 -5 -6 -6 -6 -7 -7 -7 -7 -7 -7 -7 -7 -7 -7 -7 -7 -6 -6 -7 -7 -7 -7 -7 -7 -7 -7 -8 -8 -8 -8
-8 -8 -7 -7 -7 -8 -6 -6 -7 -7 -6 -6 -6 -6 -6 -6 -6 -6 -6 -6 -6 -6 -6 -7 -7 -7 -6 -7 -7 -7 -7 -7 -7 -7 -7 -7 -7 -7 -7 -7 -7 -7 -7 -7 -7 -8 -8 -8 -8
-8 -7 -8 -8 -7 -8 -7 -7 -7 -7 -6 -7 -7 -7 -6 -6 -6 -6 -6 -6 -6 -6 -6 -6 -7 -7 -6 -6 -7 -7 -7 -7 -7 -7 -7 -7 -7 -6 -6 -6 -7 -7 -7 -7 -7 -7 -8 -8 -8
-7 -7 -8 -8 -7 -7 -8 -8 -7 -6 -7 -7 -7 -7 -7 -6 -6 -6 -6 -6 -6 -6 -6 -6 -7 -7 -6 -6 -6 -7 -7 -7 -7 -7 -7 -7 -7 -6 -7 -7 -7 -7 -7 -7 -7 -7 -7 -8 -8
-8 -8 -8 -8 -8 -7 -8 -7 -8 -7 -7 -7 -7 -7 -7 -7 -7 -7 -6 -6 -7 -7 -7 -7 -7 -7 -7 -7 -7 -6 -6 -6 -6 -6 -7 -7 -7 -6 -6 -7 -7 -7 -7 -7 -7 -7 -7 -7 -8
-8 -8 -8 -8 -7 -7 -8 -8 -8 -7 -7 -7 -8 -7 -7 -7 -7 -7 -7 -6 -6 -6 -6 -6 -7 -7 -7 -7 -7 -7 -7 -7 -7 -7 -7 -7 -7 -7 -7 -7 -7 -7 -7 -7 -7 -7 -7 -7 -7
-8 -7 -8 -8 -8 -8 -7 -8 -7 -7 -7 -7 -8 -9 -9 -7 -7 -7 -7 -7 -7 -6 -6 -6 -6 -6 -6 -7 -7 -7 -7 -7 -7 -6 -7 -7 -7 -7 -7 -7 -7 -7 -7 -7 -7 -7 -8 -7 -7
-8 -8 -7 -7 -7 -7 -7 -8 -8 -6 -7 -7 -8 -8 -9 -8 -8 -8 -8 -7 -7 -7 -7 -7 -7 -7 -7 -6 -7 -7 -7 -7 -7 -7 -7 -7 -7 -7 -7 -7 -7 -7 -7 -7 -7 -7 -7 -7 -7
-8 -9 -8 -8 -8 -7 -7 -7 -7 -7 -6 -7 -7 -7 -9 -8 -9 -8 -8 -8 -7 -7 -7 -7 -7 -7 -7 -7 -7 -7 -7 -7 -7 -7 -7 -7 -7 -7 -7 -7 -7 -7 -7 -7 -7 -7 -7 -7 -7
-9 -8 -7 -7 -8 -6 -6 -6 -7 -7 -6 -7 -7 -7 -8 -8 -8 -9 -8 -8 -8 -7 -7 -7 -7 -7 -7 -7 -7 -7 -7 -7 -7 -7 -7 -7 -7 -7 -7 -7 -7 -7 -7 -8 -8 -7 -7 -7 -7
-8 -8 -7 -6 -6 -6 -6 -6 -6 -7 -7 -7 -7 -7 -7 -8 -8 -8 -8 -8 -7 -8 -7 -7 -7 -7 -7 -7 -8 -8 -7 -7 -8 -8 -8 -7 -7 -7 -7 -7 -7 -7 -7 -7 -7 -7 -7 -7 -7
-8 -7 -6 -7 -7 -7 -6 -6 -5 -7 -7 -7 -7 -8 -7 -7 -8 -8 -8 -8 -7 -7 -7 -7 -7 -7 -7 -7 -7 -7 -7 -7 -8 -8 -8 -7 -7 -7 -7 -7 -7 -7 -7 -7 -7 -8 -7 -7 -7
-8 -8 -7 -6 -6 -7 -7 -7 -7 -7 -7 -7 -7 -8 -8 -8 -8 -8 -8 -8 -8 -8 -7 -7 -7 -7 -7 -7 -7 -7 -7 -7 -7 -7 -7 -7 -7 -7 -8 -8 -7 -7 -7 -7 -8 -8 -8 -7 -7
-8 -8 -7 -7 -6 -6 -6 -7 -7 -7 -7 -7 -7 -8 -8 -8 -8 -8 -8 -8 -8 -8 -8 -8 -7 -7 -7 -7 -7 -7 -7 -7 -7 -7 -7 -7 -7 -8 -8 -8 -8 -8 -8 -7 -7 -7 -7 -8 -7
-8 -8 -7 -7 -7 -7 -7 -7 -7 -6 -5 -7 -7 -8 -8 -8 -8 -8 -8 -8 -8 -8 -8 -8 -8 -8 -8 -8 -7 -7 -7 -7 -7 -7 -7 -7 -7 -7 -7 -7 -7 -8 -8 -8 -8 -7 -7 -8 -8
-8 -8 -8 -6 -7 -7 -7 -7 -7 -5 -8 -7 -8 -8 -8 -8 -8 -8 -8 -9 -9 -8 -8 -8 -8 -8 -8 -8 -8 -7 -7 -7 -7 -7 -7 -7 -7 -7 -7 -7 -7 -7 -7 -7 -8 -7 -7 -7 -8
Height
5917 5916 5915 5916 5919 5915 5914 5912 5910 5910 5909 5908 5908 5906 5906 5905 5906 5906 5902 5901 5901 5901 5902 5904 5905 5905 5905 5905 5904 5904 5903 5904 5904 5903 5903 5903 5902 5901 5900 5900 5900 5899 5900 5901 5901 5902 5903 5903 5904
5917 5916 5917 5916 5888 5913 5915 5914 5914 5912 5911 5909 5908 5907 5907 5905 5904 5903 5902 5902 5901 5901 5903 5904 5904 5905 5906 5905 5904 5904 5904 5903 5904 5904 5904 5903 5902 5903 5902 5902 5901 5901 5901 5901 5901 5902 5903 5904 5905
5918 5917 5919 5919 5916 5917 5917 5915 5914 5913 5912 5910 5909 5908 5907 5907 5904 5903 5903 5903 5902 5902 5903 5905 5904 5905 5905 5906 5904 5905 5904 5904 5904 5904 5904 5904 5903 5903 5903 5903 5902 5902 5902 5903 5903 5904 5904 5904 5905
5918 5919 5921 5917 5919 5918 5918 5916 5915 5913 5912 5911 5909 5908 5907 5908 5906 5904 5902 5903 5903 5903 5904 5904 5905 5905 5905 5905 5905 5905 5904 5905 5905 5904 5904 5904 5904 5904 5904 5903 5903 5903 5903 5904 5903 5904 5905 5907 5906
5918 5919 5919 5920 5919 5918 5917 5916 5914 5914 5912 5911 5910 5908 5908 5907 5907 5905 5904 5903 5902 5904 5904 5905 5905 5905 5905 5905 5906 5905 5905 5906 5905 5905 5905 5905 5905 5904 5903 5903 5904 5904 5904 5905 5905 5905 5906 5906 5907
5918 5919 5922 5918 5918 5917 5915 5915 5914 5913 5912 5911 5910 5909 5909 5907 5906 5905 5905 5904 5903 5905 5905 5905 5906 5906 5906 5906 5905 5905 5906 5906 5907 5906 5905 5906 5905 5905 5904 5904 5904 5905 5905 5906 5906 5907 5907 5907 5907
5919 5919 5919 5917 5918 5916 5915 5914 5914 5913 5912 5910 5909 5908 5908 5908 5907 5906 5906 5905 5905 5905 5906 5906 5907 5908 5908 5907 5906 5905 5906 5907 5909 5907 5907 5907 5906 5907 5906 5905 5905 5905 5905 5906 5908 5908 5909 5908 5908
5919 5918 5917 5916 5915 5915 5914 5914 5914 5913 5913 5910 5910 5909 5909 5908 5907 5907 5907 5906 5906 5907 5907 5907 5909 5908 5908 5907 5907 5905 5906 5906 5907 5907 5907 5908 5910 5910 5911 5908 5907 5906 5906 5906 5907 5908 5909 5910 5909
5920 5923 5919 5916 5914 5914 5913 5914 5913 5913 5913 5912 5911 5911 5910 5909 5908 5908 5907 5907 5907 5908 5908 5908 5909 5908 5907 5906 5905 5904 5902 5905 5905 5906 5907 5910 5904 5897 5904 5912 5909 5908 5908 5906 5907 5908 5909 5909 5909
5925 5923 5920 5919 5914 5913 5914 5912 5913 5914 5913 5913 5912 5912 5911 5910 5909 5908 5908 5908 5908 5908 5909 5909 5909 5909 5908 5906 5902 5903 5902 5900 5904 5906 5907 5908 5901 5891 5904 5906 5912 5909 5909 5908 5909 5909 5909 5910 5910
5927 5922 5921 5918 5917 5914 5914 5913 5914 5915 5914 5913 5913 5912 5911 5911 5910 5910 5909 5908 5908 5909 5909 5909 5909 5909 5907 5906 5906 5903 5902 5900 5902 5906 5907 5908 5905 5905 5909 5914 5912 5910 5909 5909 5909 5909 5909 5911 5913
5922 5920 5921 5919 5917 5917 5915 5916 5916 5915 5913 5913 5912 5912 5912 5911 5911 5910 5910 5909 5910 5909 5910 5910 5909 5909 5908 5906 5905 5903 5903 5903 5903 5906 5908 5909 5910 5911 5912 5911 5910 5911 5909 5909 5910 5911 5910 5911 5911
5925 5921 5921 5920 5919 5919 5918 5918 5917 5915 5914 5913 5912 5913 5912 5912 5912 5912 5911 5911 5910 5910 5910 5911 5909 5909 5908 5906 5905 5903 5903 5904 5905 5907 5908 5909 5910 5911 5910 5909 5909 5909 5910 5910 5911 5911 5911 5910 5911
5923 5923 5923 5922 5921 5921 5922 5921 5921 5917 5916 5914 5914 5913 5913 5913 5913 5913 5913 5912 5911 5910 5910 5911 5911 5910 5909 5907 5906 5904 5902 5904 5905 5907 5908 5909 5910 5910 5910 5910 5909 5910 5911 5911 5911 5912 5912 5912 5912
5924 5927 5925 5924 5925 5927 5926 5925 5922 5919 5919 5917 5916 5915 5915 5914 5913 5913 5913 5912 5912 5911 5911 5912 5911 5912 5910 5909 5908 5907 5907 5906 5906 5908 5909 5910 5910 5910 5910 5910 5909 5910 5910 5911 5912 5913 5914 5913 5914
5927 5930 5931 5926 5926 5928 5927 5926 5924 5921 5919 5919 5918 5917 5916 5915 5915 5915 5914 5914 5913 5912 5912 5912 5912 5913 5912 5911 5911 5910 5910 5909 5909 5911 5912 5911 5911 5911 5911 5910 5908 5909 5910 5911 5912 5914 5914 5914 5914
5931 5928 5932 5928 5927 5929 5928 5926 5926 5924 5922 5920 5920 5920 5918 5917 5916 5916 5915 5915 5914 5914 5914 5913 5913 5913 5913 5913 5913 5913 5913 5912 5912 5912 5912 5912 5911 5912 5912 5908 5909 5910 5911 5911 5912 5913 5911 5914 5914
5932 5935 5931 5932 5927 5928 5932 5928 5926 5925 5924 5922 5922 5921 5920 5919 5918 5917 5916 5915 5915 5914 5915 5914 5914 5913 5914 5914 5914 5914 5914 5913 5913 5913 5912 5911 5911 5912 5912 5911 5912 5913 5912 5912 5912 5913 5912 5913 5913
5928 5931 5932 5930 5927 5929 5932 5933 5928 5925 5926 5924 5924 5922 5921 5921 5920 5919 5918 5916 5915 5915 5915 5915 5914 5913 5913 5914 5914 5914 5914 5913 5913 5912 5911 5911 5911 5912 5913 5913 5913 5913 5912 5912 5912 5912 5913 5912 5911
5927 5931 5932 5931 5928 5930 5933 5934 5934 5927 5927 5926 5926 5922 5922 5921 5922 5921 5920 5918 5918 5917 5916 5916 5914 5913 5913 5913 5913 5913 5912 5912 5912 5913 5913 5912 5912 5912 5912 5913 5913 5912 5912 5912 5912 5912 5912 5912 5912
5928 5931 5929 5932 5929 5929 5930 5931 5930 5929 5926 5927 5926 5924 5925 5923 5924 5923 5922 5921 5920 5919 5918 5917 5916 5915 5913 5913 5913 5913 5912 5912 5912 5910 5913 5913 5913 5912 5911 5912 5912 5912 5911 5910 5909 5910 5910 5909 5909
5929 5926 5926 5926 5928 5932 5931 5931 5929 5928 5928 5927 5927 5926 5926 5924 5925 5925 5924 5923 5923 5922 5921 5920 5918 5916 5915 5914 5913 5914 5913 5913 5912 5912 5912 5912 5912 5911 5910 5906 5911 5912 5911 5910 5909 5907 5905 5905 5908
5926 5922 5923 5924 5927 5932 5932 5932 5924 5926 5927 5925 5926 5927 5927 5924 5925 5925 5926 5925 5925 5924 5923 5921 5920 5918 5917 5915 5915 5915 5914 5913 5912 5911 5911 5911 5911 5910 5910 5909 5909 5909 5909 5908 5907 5905 5903 5902 5904
5919 5921 5923 5925 5927 5930 5931 5932 5924 5920 5925 5923 5925 5927 5926 5925 5925 5925 5925 5925 5925 5925 5923 5922 5921 5919 5918 5916 5915 5915 5914 5914 5914 5912 5911 5911 5910 5910 5909 5908 5908 5906 5906 5905 5904 5903 5902 5902 5903
5918 5922 5927 5930 5929 5929 5929 5928 5917 5904 5919 5921 5922 5924 5926 5925 5925 5925 5925 5924 5924 5924 5923 5921 5920 5918 5918 5916 5915 5914 5913 5912 5910 5910 5909 5909 5908 5906 5906 5904 5905 5903 5902 5900 5900 5902 5902 5902 5901
5920 5923 5926 5927 5926 5916 5923 5923 5912 5910 5917 5920 5921 5922 5922 5924 5923 5924 5923 5923 5923 5922 5922 5920 5919 5917 5917 5915 5914 5913 5911 5910 5908 5907 5907 5906 5903 5900 5900 5901 5900 5900 5900 5900 5898 5899 5900 5901 5900
5917 5918 5922 5924 5921 5920 5914 5923 5918 5916 5917 5919 5920 5921 5922 5922 5922 5922 5922 5921 5920 5920 5919 5917 5916 5916 5914 5913 5913 5912 5910 5908 5907 5905 5904 5903 5901 5898 5898 5898 5897 5898 5897 5896 5897 5897 5896 5898 5898
5911 5917 5921 5921 5920 5919 5914 5907 5903 5910 5912 5916 5917 5918 5919 5919 5918 5919 5918 5917 5916 5915 5913 5912 5912 5911 5910 5909 5909 5908 5907 5906 5904 5903 5901 5900 5899 5898 5897 5896 5895 5894 5893 5893 5893 5893 5894 5894 5895
5909 5912 5915 5916 5916 5912 5912 5902 5898 5889 5895 5907 5913 5915 5915 5915 5914 5914 5914 5913 5912 5910 5909 5908 5908 5907 5906 5905 5903 5903 5901 5900 5900 5898 5898 5896 5895 5894 5893 5892 5890 5888 5889 5888 5889 5888 5890 5891 5891
5905 5910 5910 5916 5916 5911 5909 5907 5903 5865 5901 5900 5908 5910 5910 5910 5910 5910 5910 5908 5908 5907 5905 5904 5903 5903 5902 5900 5899 5898 5897 5895 5893 5892 5891 5891 5891 5890 5889 5888 5886 5885 5884 5883 5883 5884 5885 5887 5888
Wind_Speed
6 6 5 4 5 6 7 8 10 7 7 9 6 4 2 4 3 3 2 2 1 4 4 5 7 7 6 8 8 10 11 11 11 10 10 10 10 10 11 10 8 8 6 6 5 4 4 3 3
6 8 4 6 7 4 4 7 3 4 7 7 8 5 5 1 1 2 2 2 2 2 2 2 4 4 6 10 8 8 9 11 11 9 8 10 10 9 10 9 7 8 6 5 4 4 5 4 4
6 7 7 5 1 3 3 7 3 4 5 7 9 8 6 4 1 1 2 3 2 2 4 4 2 2 4 6 7 7 8 9 11 8 7 8 9 9 8 8 7 7 6 5 4 3 4 4 3
3 2 5 3 4 4 2 3 4 6 6 7 10 10 8 5 4 1 1 3 2 1 0 4 5 3 5 4 4 6 7 7 9 9 6 6 7 8 8 8 7 6 6 5 4 4 4 4 3
7 8 8 3 2 5 6 4 4 5 5 6 6 7 6 4 3 2 3 4 1 2 0 2 6 5 6 7 6 7 7 7 8 7 7 5 5 7 6 7 7 6 5 5 6 4 4 3 2
4 5 8 1 2 4 4 4 4 5 6 6 5 6 4 3 1 1 2 3 2 2 1 4 5 5 5 6 8 8 8 8 8 6 6 5 5 6 6 6 6 6 5 6 7 6 5 4 4
6 3 0 3 4 5 6 5 5 7 6 7 4 2 2 3 4 3 3 3 2 3 2 3 1 2 2 5 7 10 10 8 6 4 5 5 5 6 6 5 5 6 6 7 6 6 5 7 7
6 8 3 6 5 6 8 6 1 3 5 7 4 3 3 5 4 4 2 3 2 2 2 1 1 2 5 7 8 12 13 11 10 7 6 6 5 7 5 5 4 5 7 8 6 5 4 5 8
6 6 6 3 6 6 6 4 2 3 5 7 6 5 2 4 5 4 3 4 4 4 3 2 2 3 4 7 12 13 12 17 11 10 9 10 6 11 9 2 4 4 7 7 5 5 4 5 5
7 3 5 4 2 4 6 6 5 6 4 4 2 1 3 4 6 5 4 4 5 5 4 3 2 5 4 10 8 8 7 9 17 11 12 12 7 10 14 3 2 5 7 6 5 4 4 5 6
4 4 7 2 3 4 5 6 6 4 3 4 2 0 2 3 4 4 4 5 4 4 4 4 3 4 2 5 8 7 5 3 20 13 11 10 7 4 6 9 2 4 6 6 4 2 3 4 5
6 1 4 3 3 4 5 7 6 5 5 4 2 1 0 1 2 4 4 5 4 4 5 6 5 5 4 8 11 5 5 8 12 9 10 10 10 8 9 8 9 4 6 7 5 2 1 5 6
4 2 2 1 2 4 6 7 7 7 7 5 3 1 1 1 0 2 4 5 4 5 3 3 4 2 5 8 10 7 8 12 11 9 9 8 7 6 7 9 7 7 6 6 5 2 2 2 6
6 3 2 1 1 5 7 7 8 10 8 6 4 2 2 1 1 3 2 3 4 4 3 1 2 6 6 8 10 9 8 10 9 8 7 6 5 2 7 6 3 6 6 6 6 3 1 5 7
7 6 3 3 2 2 9 8 9 9 10 10 9 8 6 4 4 4 4 3 3 3 3 2 3 4 3 5 7 9 10 9 7 5 6 4 2 1 3 3 7 7 7 5 3 5 3 5 6
9 10 4 13 4 8 3 2 3 7 8 9 11 12 13 11 7 5 5 5 4 5 4 3 3 4 5 3 4 5 9 9 7 5 1 3 4 2 4 7 6 10 8 5 4 5 7 7 7
3 6 6 7 7 10 5 6 2 6 6 9 11 13 11 11 11 10 6 5 5 5 5 5 5 5 6 5 2 3 5 5 5 5 6 3 2 3 3 4 2 6 8 6 6 7 9 9 9
9 2 4 4 8 7 5 12 8 5 6 7 9 10 9 10 10 9 9 10 8 8 7 7 7 8 7 6 6 5 4 5 6 5 6 7 4 5 4 3 3 4 8 11 10 7 6 4 6
5 9 6 6 9 5 6 5 14 10 8 7 8 6 5 7 8 8 7 7 7 8 6 7 8 7 6 7 5 6 8 9 8 7 6 7 6 4 6 5 5 6 9 11 13 10 8 6 2
7 5 2 8 9 6 7 7 9 6 5 6 8 8 5 7 7 6 6 5 5 5 6 7 7 6 5 7 8 8 8 9 9 8 7 6 8 6 6 9 9 9 8 9 13 14 12 7 4
5 8 6 8 7 8 5 3 9 8 6 3 7 4 2 7 7 7 7 7 7 5 4 4 4 5 5 4 5 7 6 7 6 7 5 9 7 7 5 9 12 12 13 14 10 13 17 14 10
7 13 17 16 6 4 9 12 9 9 8 5 3 1 2 9 7 6 7 7 8 7 8 9 7 6 5 3 2 3 4 4 5 6 4 3 5 5 8 8 10 14 14 15 17 21 21 19 17
8 10 12 10 8 8 10 13 13 10 12 6 4 2 5 5 7 4 6 10 5 4 4 7 9 8 6 6 7 6 4 5 5 6 7 7 7 8 6 5 8 10 11 14 18 18 17 18 14
17 8 7 4 6 8 11 12 20 15 14 7 5 6 2 2 2 1 1 6 8 6 6 8 9 7 7 6 5 5 6 7 6 7 7 9 10 11 11 9 9 10 12 12 14 14 13 14 16
14 6 2 6 7 10 14 18 31 8 12 12 10 9 3 4 1 4 3 6 7 7 7 8 5 5 7 11 8 7 9 11 14 11 9 10 15 17 13 13 12 13 16 15 11 12 15 17 20
8 11 9 10 15 15 13 15 30 6 8 13 13 11 9 6 8 6 8 10 12 15 14 10 7 6 5 10 13 10 12 9 11 6 9 15 18 22 12 15 15 15 18 15 12 14 16 16 15
11 15 13 13 20 13 10 15 24 17 16 15 14 14 12 11 11 10 12 15 17 18 15 12 10 9 9 13 14 11 10 6 9 14 15 19 16 18 8 12 16 18 16 14 15 15 16 16 19
17 14 12 10 16 17 21 31 26 26 13 11 15 14 12 15 17 19 20 20 21 20 18 14 15 16 17 19 19 15 14 12 13 14 16 18 19 15 11 12 17 21 20 19 20 21 20 19 18
13 13 13 15 22 11 26 15 24 38 22 15 17 19 18 18 19 21 23 21 21 21 20 20 22 21 23 24 24 19 19 20 18 18 18 20 21 21 20 22 20 20 22 22 22 25 25 22 21
20 14 11 13 13 21 19 23 28 3 9 13 20 21 19 19 21 22 23 23 22 23 25 26 27 25 26 27 26 24 22 24 25 24 24 23 24 25 25 24 24 23 24 26 26 26 27 26 26
Wind_Direction
110 126 118 49 40 41 35 18 53 357 5 9 16 31 43 155 142 205 15 3 62 134 138 112 107 100 92 118 94 93 93 93 105 114 105 105 100 96 91 84 84 88 76 71 83 107 95 119 128
122 147 108 84 152 139 345 1 102 346 333 355 348 1 333 337 297 6 44 16 335 202 181 151 123 116 92 123 119 107 102 101 109 114 106 104 96 90 86 86 91 95 95 95 105 126 144 138 149
135 108 96 76 352 216 349 351 350 334 317 328 334 330 338 304 273 348 29 18 359 241 214 238 191 158 135 116 126 125 120 112 112 113 111 106 97 94 93 85 91 101 102 105 110 121 139 143 167
128 130 112 41 211 220 280 321 327 327 319 309 303 314 320 293 284 268 26 359 336 109 195 225 213 210 180 170 155 156 146 131 117 124 120 110 101 95 97 87 97 106 112 134 128 108 114 145 128
91 83 102 156 204 220 276 304 322 341 332 315 320 312 314 312 291 311 20 11 52 131 248 222 186 194 203 195 206 180 169 161 133 131 124 107 100 93 97 91 92 103 104 121 125 109 120 116 149
75 45 35 352 279 268 291 322 331 320 316 301 298 313 320 327 344 359 19 46 67 72 84 170 158 173 190 201 216 199 187 179 157 141 133 112 98 92 101 88 95 104 92 102 119 118 130 110 106
45 41 266 336 294 295 296 303 303 334 348 318 284 294 21 11 32 38 23 48 57 39 62 118 127 166 212 225 231 224 203 194 174 156 119 103 99 89 95 90 89 105 101 96 108 125 134 119 112
18 349 354 327 285 295 296 299 48 67 27 32 132 131 63 41 38 52 33 54 32 359 337 347 263 255 277 260 255 245 218 195 186 181 144 116 88 73 67 95 87 104 107 113 120 137 135 135 126
18 21 38 316 293 300 303 304 13 43 41 42 127 123 29 17 23 43 58 69 47 36 13 310 354 310 300 254 310 265 262 219 178 182 158 123 161 139 94 30 112 110 106 111 128 150 163 164 143
71 212 78 44 314 301 303 323 358 15 39 72 68 96 7 3 12 23 40 75 55 41 53 46 325 329 294 278 16 328 299 226 198 182 160 142 160 323 139 204 153 129 110 105 121 146 189 175 169
98 70 344 252 62 352 1 355 4 20 11 57 70 336 350 3 23 32 42 59 56 41 48 38 14 11 308 297 327 323 6 9 181 172 161 149 129 131 155 187 118 164 126 116 123 158 184 192 141
322 187 209 350 14 14 14 9 5 359 9 10 17 339 215 45 34 36 48 66 74 49 57 46 8 3 339 335 343 347 132 120 154 161 156 158 151 157 168 168 170 163 153 144 144 134 277 208 201
189 194 250 283 350 54 22 23 30 22 12 358 357 343 184 196 12 35 61 64 52 71 58 59 353 330 322 329 345 311 159 150 151 166 153 164 168 170 160 165 170 155 157 163 181 141 331 236 186
210 160 235 166 333 56 69 54 62 44 31 23 13 22 85 112 67 40 36 25 33 40 61 90 355 327 319 331 355 67 132 142 155 161 159 171 180 179 192 217 228 181 174 167 190 165 103 135 158
147 39 26 260 193 355 58 28 61 56 49 46 53 64 68 71 58 51 36 35 40 50 37 338 13 357 351 334 5 33 106 111 122 151 180 187 210 195 182 267 210 227 199 180 176 189 174 167 178
102 82 233 290 173 109 69 339 34 64 53 49 44 45 45 45 35 27 39 37 49 59 26 15 338 344 356 340 43 62 52 60 68 60 339 226 233 281 319 328 250 218 205 196 204 211 204 203 198
120 164 214 291 208 143 92 313 79 71 58 58 43 43 41 42 41 37 20 9 21 33 23 9 1 348 350 10 7 40 43 46 34 29 19 335 271 239 323 326 155 202 218 220 230 233 270 216 202
190 224 247 198 238 186 144 297 341 29 15 26 33 28 26 40 46 47 42 37 29 28 27 8 3 5 357 4 18 15 16 20 5 353 354 8 343 253 231 258 269 265 263 257 253 257 293 234 233
193 179 207 229 229 195 159 238 311 329 30 23 17 20 22 40 48 51 63 62 62 51 42 30 21 7 4 359 7 9 8 5 359 321 310 350 337 290 250 256 267 288 282 264 260 265 266 227 232
199 211 245 271 256 187 241 174 249 303 355 15 26 351 33 67 56 49 58 62 62 63 66 70 59 33 20 1 3 6 6 19 21 39 42 2 359 336 275 262 272 282 285 272 263 265 265 245 202
207 186 248 203 272 240 197 205 285 289 304 327 352 349 48 66 64 55 40 51 49 54 47 51 62 53 64 50 27 21 6 15 21 25 46 20 346 352 310 279 281 280 283 290 288 276 265 256 225
226 223 244 226 209 263 247 240 235 298 269 286 335 43 163 75 68 69 48 67 63 59 56 47 49 58 66 76 46 58 37 7 1 2 18 4 330 318 291 327 302 291 290 291 295 291 274 263 233
248 231 246 215 200 212 257 246 204 263 261 266 286 292 184 102 62 58 57 54 46 43 66 71 44 38 42 44 51 46 40 19 3 351 349 342 330 315 320 313 309 298 284 292 309 306 279 269 247
221 218 218 218 236 232 235 213 240 200 241 233 266 277 225 314 136 135 326 341 345 353 296 311 348 19 25 24 50 53 30 12 5 354 12 15 350 326 305 288 284 280 278 275 291 300 289 279 277
227 218 243 258 248 237 209 228 253 172 217 266 265 276 271 295 228 224 283 318 335 322 326 297 319 3 21 45 29 5 352 343 326 310 313 331 325 324 293 281 275 277 265 256 265 283 282 285 281
271 231 204 252 242 219 220 240 250 157 246 256 250 265 282 285 283 279 294 296 302 308 307 313 286 300 324 358 352 327 324 330 342 313 314 320 337 324 273 265 271 271 281 295 273 269 275 280 279
222 236 204 245 285 248 214 221 241 244 247 247 253 256 262 274 268 281 294 297 299 298 298 299 309 301 293 310 318 305 310 304 320 320 327 329 334 348 320 280 278 277 275 273 269 262 266 270 272
198 217 229 218 254 217 258 261 212 225 207 249 244 241 251 260 271 269 282 294 294 298 300 302 305 312 314 311 308 302 296 294 306 318 323 326 329 325 301 299 298 282 275 264 260 262 264 268 268
200 217 210 252 223 286 267 230 220 249 204 246 256 248 258 257 259 272 278 280 287 292 294 295 298 306 305 301 299 297 305 305 299 308 314 315 316 316 305 303 301 292 272 273 267 264 262 260 260
183 204 197 232 262 240 252 290 273 103 280 267 256 255 255 257 264 265 271 276 278 278 280 285 289 294 297 299 296 293 295 299 299 301 302 303 303 303 301 300 298 295 289 276 266 270 270 265 265